Flag for Canada Weather past 2 weeks in Shawinigan, Quebec, Canada

Now
63 °F

Mild.


Feels Like: 63 °F
Forecast: 61 / 74 °F
Wind: 5 mph from Northeast

Location: Shawinigan CS

Current Time: Aug 22, 2014 at 4:17:09 AM

Latest Report: Aug 22, 2014 at 3:00 AM


Visibility: N/A

Pressure: 30.08 "Hg

Humidity: 81%

Dew point: 57 °F

Location of ShawiniganLocation

Historic Weather in Shawinigan — Graph

°F

Shawinigan temperature yesterday

Maximum temperature yesterday: 75 °F (at 2:00 PM)
Minimum temperature yesterday: 62 °F (at 6:00 AM)
Average temperature yesterday: 68 °F

Past Weeks' High & Low Weather Summary

 TemperatureHumidityPressure
High83 °F (Aug 11, 3:00 PM)100% (Aug 13, 2:00 PM)30.12 "Hg (Aug 13, 2:00 PM)
Low50 °F (Aug 19, 6:00 AM)33% (Aug 9, 2:00 PM)29.63 "Hg (Aug 14, 5:00 AM)
Average64 °F78%29.93 "Hg
* Reported Aug 7 3:00 AM — Aug 22 3:00 AM, Shawinigan, Weather by CustomWeather, © 2014

Note: Actual official high and low records may vary slightly from our data, if they occured in-between our weather recording intervals... More about our weather records

Advertising

Shawinigan weather history for previous 24 hours

 ConditionsComfort  
Time TempWeatherWind HumidityBarometerVisibility
3:00 AM
Aug 22
63 °FMild.5 mph81%30.08 "HgN/A
2:00 AM63 °FMild.5 mph80%30.08 "HgN/A
1:00 AM64 °FMild.6 mph76%30.09 "HgN/A
12:00 AM65 °FMild.7 mph74%30.08 "HgN/A
11:00 PM
Aug 21
66 °FMild.10 mph73%30.08 "HgN/A
10:00 PM67 °FMild.8 mph75%30.09 "HgN/A
9:00 PM67 °FMild.6 mph77%30.08 "HgN/A
8:00 PM69 °FMild.7 mph76%30.07 "HgN/A
7:00 PM71 °FMild.7 mph72%30.07 "HgN/A
6:00 PM73 °FMild.9 mph64%30.06 "HgN/A
5:00 PM75 °FMild.12 mph64%30.06 "HgN/A
4:00 PM75 °FMild.8 mph67%30.05 "HgN/A
3:00 PM75 °FMild.7 mph66%30.06 "HgN/A
2:00 PM75 °FMild.9 mph67%30.06 "HgN/A
1:00 PM73 °FMild.8 mph71%30.07 "HgN/A
12:00 PM71 °FMild.7 mph68%30.08 "HgN/A
11:00 AM71 °FMild.8 mph72%30.08 "HgN/A
10:00 AM68 °FMild.5 mph77%30.09 "HgN/A
9:00 AM65 °FMild.6 mph81%30.09 "HgN/A
8:00 AM63 °FMild.6 mph82%30.09 "HgN/A
7:00 AM62 °FCool.5 mph83%30.08 "HgN/A
6:00 AM62 °FCool.6 mph82%30.06 "HgN/A
5:00 AM62 °FCool.6 mph81%30.05 "HgN/A
4:00 AM63 °FMild.5 mph80%30.04 "HgN/A
Weather by CustomWeather, © 2014

See weather overviewHow to use our weather pages